Hourly Data Report for July 18, 2015

KELOWNA UBCO
BRITISH COLUMBIA

49°56'26.700" N
119°24'00.760" W
456.00 m
1123996
71644
VKU

Download Data

Hourly Data (July 2015)
Hourly Data Report for July 18, 2015
TIME
LST
Temp Definition
°C
Dew Point Definition
°C
Rel Hum Definition
%
Precip. Amount Definition
mm

Wind Dir Definition
10's deg

Wind Spd Definition
km/h
Visibility Definition
km
Stn Press Definition
kPa
Hmdx Definition


Wind Chill Definition


Weather Definition


00:00 17.1 5.6 47 0.0       96.36     LegendNANA
01:00 16.2 6.2 52 0.0       96.40     LegendNANA
02:00 13.9 6.3 60 0.0       96.43     LegendNANA
03:00 13.4 6.0 61 0.0       96.45     LegendNANA
04:00 14.4 5.8 56 0.0       96.46     LegendNANA
05:00 12.1 6.3 68 0.0       96.51     LegendNANA
06:00 16.8 6.5 51 0.0       96.54     LegendNANA
07:00 20.2 6.9 42 0.0       96.52     LegendNANA
08:00 22.9 5.6 33 0.0       96.52     LegendNANA
09:00 26.0 5.5 27 0.0       96.47 25   LegendNANA
10:00 25.9 5.2 26 0.0       96.44 25   LegendNANA
11:00 28.5 5.4 23 0.0       96.41 28   LegendNANA
12:00 28.9 5.8 23 0.0       96.36 28   LegendNANA
13:00 29.3 6.3 23 0.0       96.32 29   LegendNANA
14:00 29.1 7.7 26 0.0       96.30 29   LegendNANA
15:00 28.8 7.7 27 0.0       96.28 29   LegendNANA
16:00 28.7 8.4 28 0.0       96.23 29   LegendNANA
17:00 28.6 8.3 28 0.0       96.19 29   LegendNANA
18:00 29.0 8.5 28 0.0       96.14 30   LegendNANA
19:00 28.2 8.3 29 0.0       96.10 29   LegendNANA
20:00 25.4 8.7 35 0.0       96.11 26   LegendNANA
21:00 22.6 9.5 43 0.0       96.12     LegendNANA
22:00 20.6 9.7 50 0.0       96.13     LegendNANA
23:00 20.9 10.0 50 0.0       96.13     LegendNANA

Notes on Data Quality.

Legend

  • E = Estimated
  • M = Missing
  • NA = Not Available*
  • [empty] = Indicates an unobserved value
Date modified: